This is the latest recevied weather packets stored in our database for station/object N7CEE. If no packets are shown the sender has not sent any weather packets the latest 10 day(s).
| Time | Temp. | Humidity | Pressure | Rain* | Wind** | Luminosity | Snow |
|---|---|---|---|---|---|---|---|
| 1777593958 | 16.11° C | 25% | 1018.4 hPa | 0 mm | - | 62 W/m² | - |
| 1777593655 | 16.11° C | 24% | 1018.6 hPa | 0 mm | - | 68 W/m² | - |
| 1777593350 | 16.11° C | 24% | 1018.4 hPa | 0 mm | - | 74 W/m² | - |
| 1777593050 | 16.11° C | 25% | 1018.3 hPa | 0 mm | - | 76 W/m² | - |
| 1777592749 | 16.11° C | 25% | 1018.3 hPa | 0 mm | - | 79 W/m² | - |
| 1777592445 | 16.11° C | 25% | 1018.2 hPa | 0 mm | - | 65 W/m² | - |
| 1777592140 | 16.11° C | 25% | 1018.4 hPa | 0 mm | - | 74 W/m² | - |
| 1777591838 | 16.67° C | 25% | 1018.3 hPa | 0 mm | - | 74 W/m² | - |
| 1777591534 | 16.67° C | 25% | 1018.3 hPa | 0 mm | - | 93 W/m² | - |
| 1777591231 | 16.67° C | 24% | 1018.1 hPa | 0 mm | - | 105 W/m² | - |
| 1777590926 | 16.67° C | 24% | 1018.1 hPa | 0 mm | - | 163 W/m² | - |
| 1777590621 | 16.67° C | 24% | 1018.4 hPa | 0 mm | - | 96 W/m² | - |
| 1777590318 | 16.67° C | 25% | 1018.1 hPa | 0 mm | - | 93 W/m² | - |
| 1777590016 | 16.11° C | 25% | 1018.4 hPa | 0 mm | - | 92 W/m² | - |
| 1777589711 | 16.11° C | 25% | 1018.3 hPa | 0 mm | - | 97 W/m² | - |
| 1777589410 | 16.67° C | 25% | 1018.4 hPa | 0 mm | - | 118 W/m² | - |
| 1777589106 | 16.67° C | 25% | 1018.4 hPa | 0 mm | - | 124 W/m² | - |
| 1777588802 | 17.78° C | 24% | 1018.2 hPa | 0 mm | - | 135 W/m² | - |
| 1777588498 | 17.78° C | 24% | 1018.3 hPa | 0 mm | - | 135 W/m² | - |
| 1777588192 | 18.89° C | 23% | 1018.4 hPa | 0 mm | - | 133 W/m² | - |
| 1777587889 | 18.89° C | 22% | 1018.6 hPa | 0 mm | - | 203 W/m² | - |
| 1777587584 | 18.33° C | 23% | 1018.6 hPa | 0 mm | - | 734 W/m² | - |
| 1777587279 | 17.22° C | 24% | 1018.7 hPa | 0 mm | - | 744 W/m² | - |
| 1777586975 | 17.78° C | 23% | 1018.6 hPa | 0 mm | - | 157 W/m² | - |
| 1777586671 | 17.78° C | 23% | 1018.8 hPa | 0 mm | - | 324 W/m² | - |
* Rain latest hour (hover to see other rain measurements)
** Current wind speed in m/s (hover to see current wind gust speed)